Location: Guadanolo
(41.9167°N, 12.9333°E)
Time: 16:27:20
(UTC+00:00)

USA 186 - Pass Details

Date: 16 September 2019
Orbit: 261 x 450 km, 96.9° (Epoch: 07 October)

Event Time Altitude Azimuth Distance (km) Brightness Sun altitude
Exits shadow 18:19:53 17° 136° (SE) 1,190 3.5 -12.4°
Maximum altitude 18:22:05 39° 74° (ENE) 683 2.4 -12.8°
Drops below altitude 10° 18:25:19 10° 4° (N) 1,593 4.8 -13.4°
Sets 18:27:27 0° 357° (N) 2,476 5.9 -13.8°
